Location: Dos Palmas
(32.4468°N, 116.8732°W)
Time: 23:21:58
(UTC+00:00)

S3M - Pass Details

Date: 20 June 2021
Orbit: 950 x 1003 km, 83.0° (Epoch: 01 August)

Event Time Altitude Azimuth Distance (km) Brightness Sun altitude
Rises 10:55:45 0° 350° (N) 3,642 7.5 -18.5°
Reaches altitude 10° 10:58:15 10° 347° (NNW) 2,698 6.7 -18.2°
Maximum altitude 11:04:20 65° 268° (W) 1,058 4.0 -17.3°
Enters shadow 11:09:20 16° 189° (S) 2,294 5.5 -16.5°
